Location: Cahas Mountain Overlook
(37.0833°N, 80.1000°W)
Time: 15:06:28
(UTC-05:00)

Vanguard 1 Rocket - Visible Passes

Search period start: 08 February 2026 00:00
Search period end: 18 February 2026 00:00
Orbit: 652 x 4215 km, 34.3° (Epoch: 8 February)

Date Brightness Start Highest point End Pass type
(mag) Time Alt. Az. Time Alt. Az. Time Alt. Az.
8 Feb 10.6 18:38:28 10° W 18:59:26 81° S 19:22:42 16° ESE visible
8 Feb 10.6 21:08:09 10° WNW 21:32:23 59° SSW 21:39:54 49° SSE visible
8 Feb 11.3 23:43:00 10° W 23:57:06 25° WSW 23:57:06 25° WSW visible
9 Feb 10.7 19:53:03 10° W 20:16:02 71° SSW 20:31:54 32° SE visible
9 Feb 10.9 22:24:41 10° WNW 22:47:01 40° SW 22:49:07 39° SW visible
10 Feb 10.7 18:38:49 10° W 18:59:17 79° SSW 19:23:59 13° ESE visible
10 Feb 10.8 21:08:22 10° WNW 21:31:44 53° SW 21:41:11 40° S visible
10 Feb 11.4 23:44:35 10° W 23:58:25 20° WSW 23:58:25 20° WSW visible
11 Feb 10.7 19:53:19 10° W 20:15:37 66° SSW 20:33:22 26° SE visible
11 Feb 11.1 22:25:18 10° W 22:46:08 34° SW 22:50:36 32° SSW visible
12 Feb 10.7 18:39:12 10° W 18:59:07 75° SSW 19:25:20 10° ESE visible
12 Feb 11.0 21:08:43 10° WNW 21:31:02 47° SW 21:42:53 32° S visible
12 Feb 11.6 23:47:22 10° W 23:59:25 16° SW 00:00:08 16° SW visible
13 Feb 10.8 19:53:38 10° W 20:15:09 60° SSW 20:35:16 20° SE visible
13 Feb 11.3 22:26:18 10° W 22:45:15 28° SW 22:52:32 24° SSW visible
14 Feb 10.7 18:39:35 10° W 18:58:53 70° SSW 19:24:58 10° ESE visible
14 Feb 11.2 21:09:15 10° W 21:30:18 41° SW 21:45:02 23° S visible
14 Feb 11.7 23:53:53 10° WSW 23:58:37 11° WSW 00:02:18 10° SW visible
15 Feb 11.0 19:54:03 10° W 20:14:39 53° SSW 20:37:40 12° SE visible
15 Feb 11.5 22:27:55 10° W 22:44:26 22° SW 22:54:56 17° SSW visible
16 Feb 10.8 18:40:00 10° W 18:58:38 65° SSW 19:24:24 10° SE visible
16 Feb 11.3 21:10:01 10° W 21:29:35 34° SW 21:47:42 14° S visible
17 Feb 11.1 19:54:34 10° W 20:14:08 47° SW 20:37:42 10° SSE visible
17 Feb 11.7 22:30:36 10° W 22:43:42 17° SW 22:56:40 10° SSW visible
